Flag for Germany Weather past 2 weeks in Oranienburg, Brandenburg, Germany

Now
78 °F

Passing clouds.


Feels Like: 79 °F
Forecast: 67 / 84 °F
Wind: 3 mph from Northeast

Location: Berlin-Tegel

Current Time: Jul 22, 2014 at 12:18:11 PM

Latest Report: Jul 22, 2014 at 11:00 AM


Visibility: 17 mi

Pressure: 30.02 "Hg

Humidity: 49%

Dew point: 57 °F

Location of OranienburgLocation

Historic Weather in Oranienburg — Graph

°F

Oranienburg temperature yesterday

Maximum temperature yesterday: 86 °F (at 4:00 PM)
Minimum temperature yesterday: 69 °F (at 6:00 AM)
Average temperature yesterday: 78 °F

Past Weeks' High & Low Weather Summary

 TemperatureHumidityPressure
High93 °F (Jul 20, 3:00 PM)97% (Jul 10, 6:00 AM)30.19 "Hg (Jul 10, 6:00 AM)
Low53 °F (Jul 13, 5:00 AM)21% (Jul 19, 4:00 PM)29.61 "Hg (Jul 9, 3:00 PM)
Average71 °F65%29.92 "Hg
* Reported Jul 7 11:00 AM — Jul 22 11:00 AM, Oranienburg, Weather by CustomWeather, © 2014

Note: Actual official high and low records may vary slightly from our data, if they occured in-between our weather recording intervals... More about our weather records

Advertising

Oranienburg weather history for previous 24 hours

 ConditionsComfort  
Time TempWeatherWind HumidityBarometerVisibility
11:00 AM
Jul 22
78 °FPassing clouds.3 mph49%30.02 "Hg17 mi
10:00 AM75 °FPassing clouds.3 mph58%30.02 "Hg16 mi
9:00 AM71 °FScattered clouds.3 mph66%30.01 "Hg16 mi
8:00 AM67 °FScattered clouds.5 mph76%30.00 "Hg12 mi
7:00 AM65 °FOvercast.3 mph81%29.99 "Hg16 mi
6:00 AM64 °FScattered clouds.3 mph82%29.97 "Hg16 mi
5:00 AM65 °FPassing clouds.3 mph81%29.95 "Hg19 mi
4:00 AM66 °FPassing clouds.3 mph79%29.95 "Hg22 mi
3:00 AM66 °FPassing clouds.3 mph76%29.94 "Hg22 mi
2:00 AM68 °FPassing clouds.3 mph71%29.94 "Hg22 mi
1:00 AM69 °FPassing clouds.3 mph68%29.93 "Hg22 mi
12:00 AM71 °FPassing clouds.5 mph65%29.93 "Hg22 mi
11:00 PM
Jul 21
73 °FOvercast.5 mph58%29.92 "Hg22 mi
10:00 PM76 °FOvercast.5 mph54%29.90 "Hg19 mi
9:00 PM79 °FOvercast.5 mph48%29.88 "Hg16 mi
8:00 PM81 °FOvercast.6 mph43%29.86 "Hg16 mi
7:00 PM84 °FOvercast.5 mph33%29.85 "Hg16 mi
6:00 PM85 °FOvercast.6 mph32%29.84 "Hg16 mi
5:00 PM86 °FOvercast.6 mph33%29.84 "Hg16 mi
4:00 PM86 °FOvercast.7 mph34%29.83 "Hg19 mi
3:00 PM85 °FOvercast.6 mph37%29.83 "Hg19 mi
2:00 PM84 °FOvercast.5 mph36%29.84 "Hg16 mi
1:00 PM84 °FOvercast.6 mph39%29.83 "Hg16 mi
12:00 PM83 °FOvercast.6 mph41%29.83 "Hg16 mi
Weather by CustomWeather, © 2014

See weather overviewHow to use our weather pages